Time,TemperatureF,DewpointF,PressureIn,WindDirection,WindDirectionDegrees,WindSpeedMPH,WindSpeedGustMPH,Humidity,HourlyPrecipIn,Conditions,Clouds,dailyrainin,SoftwareType,DateUTC
2013-01-28 00:01:00,17.3,0.5,30.39,NNW,331,0.0,0.0,47,0.00,,,0.00,Wunderground v.1.15,2013-01-28 05:01:00,
2013-01-28 00:06:00,17.3,0.9,30.39,NNW,331,0.0,0.0,48,0.00,,,0.00,Wunderground v.1.15,2013-01-28 05:06:00,
2013-01-28 00:11:00,17.3,0.5,30.38,NNW,331,0.0,0.0,47,0.00,,,0.00,Wunderground v.1.15,2013-01-28 05:11:00,
2013-01-28 00:16:00,17.4,0.6,30.38,NNW,331,0.0,0.0,47,0.00,,,0.00,Wunderground v.1.15,2013-01-28 05:16:00,
2013-01-28 00:26:00,17.6,1.2,30.38,NNW,331,0.0,0.0,48,0.00,,,0.00,Wunderground v.1.15,2013-01-28 05:26:00,
2013-01-28 00:31:00,17.6,1.2,30.38,NNW,330,0.0,0.0,48,0.00,,,0.00,Wunderground v.1.15,2013-01-28 05:31:00,
2013-01-28 00:36:00,17.7,1.7,30.38,NNW,330,0.0,0.0,49,0.00,,,0.00,Wunderground v.1.15,2013-01-28 05:36:00,
2013-01-28 00:46:00,18.2,1.8,30.38,NNW,331,0.0,0.0,48,0.00,,,0.00,Wunderground v.1.15,2013-01-28 05:46:00,
2013-01-28 00:56:00,18.3,1.9,30.38,NNW,331,0.0,0.0,48,0.00,,,0.00,Wunderground v.1.15,2013-01-28 05:56:00,
2013-01-28 01:06:00,18.2,2.2,30.38,NNW,330,0.0,0.0,49,0.00,,,0.00,Wunderground v.1.15,2013-01-28 06:06:00,
2013-01-28 01:16:00,17.9,1.9,30.38,NNW,331,0.0,0.0,49,0.00,,,0.00,Wunderground v.1.15,2013-01-28 06:16:00,
2013-01-28 01:21:00,17.8,1.8,30.38,NNW,331,0.0,0.0,49,0.00,,,0.00,Wunderground v.1.15,2013-01-28 06:21:00,
2013-01-28 01:26:00,17.8,1.8,30.38,NNW,330,0.0,0.0,49,0.00,,,0.00,Wunderground v.1.15,2013-01-28 06:26:00,
2013-01-28 01:36:00,17.9,1.9,30.38,NNW,331,0.0,0.0,49,0.00,,,0.00,Wunderground v.1.15,2013-01-28 06:36:00,
2013-01-28 01:46:00,18.1,1.7,30.38,NNW,330,0.0,0.0,48,0.00,,,0.00,Wunderground v.1.15,2013-01-28 06:46:00,
2013-01-28 01:56:00,18.4,1.5,30.39,NNW,331,0.0,0.0,47,0.00,,,0.00,Wunderground v.1.15,2013-01-28 06:56:00,
2013-01-28 02:06:00,18.5,1.6,30.39,NNW,336,0.0,0.0,47,0.00,,,0.00,Wunderground v.1.15,2013-01-28 07:06:00,
2013-01-28 02:16:00,18.7,1.3,30.39,NW,321,0.0,0.0,46,0.00,,,0.00,Wunderground v.1.15,2013-01-28 07:16:00,
2013-01-28 02:26:00,18.9,1.5,30.39,NW,321,0.0,0.0,46,0.00,,,0.00,Wunderground v.1.15,2013-01-28 07:26:00,
2013-01-28 02:31:00,18.9,1.5,30.38,NW,320,0.0,0.0,46,0.00,,,0.00,Wunderground v.1.15,2013-01-28 07:31:00,
2013-01-28 02:41:00,18.7,1.3,30.38,NW,320,0.0,0.0,46,0.00,,,0.00,Wunderground v.1.15,2013-01-28 07:41:00,
2013-01-28 02:51:00,18.6,1.7,30.38,NW,320,0.0,0.0,47,0.00,,,0.00,Wunderground v.1.15,2013-01-28 07:51:00,
2013-01-28 02:56:00,18.5,1.6,30.38,NW,320,0.0,0.0,47,0.00,,,0.00,Wunderground v.1.15,2013-01-28 07:56:00,
2013-01-28 03:06:00,18.7,1.8,30.37,NW,319,0.0,0.0,47,0.00,,,0.00,Wunderground v.1.15,2013-01-28 08:06:00,
2013-01-28 03:11:00,18.7,1.8,30.37,NW,320,0.0,0.0,47,0.00,,,0.00,Wunderground v.1.15,2013-01-28 08:11:00,
2013-01-28 03:21:00,18.6,1.7,30.36,NW,319,0.0,0.0,47,0.00,,,0.00,Wunderground v.1.15,2013-01-28 08:21:00,
2013-01-28 03:31:00,18.4,2.0,30.37,NW,320,0.0,0.0,48,0.00,,,0.00,Wunderground v.1.15,2013-01-28 08:31:00,
2013-01-28 03:36:00,18.2,1.8,30.37,NW,320,0.0,0.0,48,0.00,,,0.00,Wunderground v.1.15,2013-01-28 08:36:00,
2013-01-28 03:46:00,18.1,2.1,30.37,NW,320,0.0,0.0,49,0.00,,,0.00,Wunderground v.1.15,2013-01-28 08:46:00,
2013-01-28 03:56:00,18.1,2.1,30.37,NW,319,0.0,0.0,49,0.00,,,0.00,Wunderground v.1.15,2013-01-28 08:56:00,
2013-01-28 04:06:00,18.1,2.1,30.37,NW,320,0.0,0.0,49,0.00,,,0.00,Wunderground v.1.15,2013-01-28 09:06:00,
2013-01-28 04:16:00,18.2,2.6,30.37,NW,320,0.0,0.0,50,0.00,,,0.00,Wunderground v.1.15,2013-01-28 09:16:00,
2013-01-28 04:21:00,18.1,2.6,30.37,NW,320,0.0,0.0,50,0.00,,,0.00,Wunderground v.1.15,2013-01-28 09:21:00,
2013-01-28 04:31:00,17.7,2.6,30.36,NW,320,0.0,0.0,51,0.00,,,0.00,Wunderground v.1.15,2013-01-28 09:31:00,
2013-01-28 04:41:00,17.3,3.1,30.36,NW,319,0.0,0.0,53,0.00,,,0.00,Wunderground v.1.15,2013-01-28 09:41:00,
2013-01-28 04:51:00,16.8,3.4,30.36,NW,319,0.0,0.0,55,0.00,,,0.00,Wunderground v.1.15,2013-01-28 09:51:00,
2013-01-28 05:01:00,16.5,3.5,30.36,NW,320,0.0,0.0,56,0.00,,,0.00,Wunderground v.1.15,2013-01-28 10:01:00,
2013-01-28 05:06:00,16.3,3.3,30.35,NW,321,0.0,0.0,56,0.00,,,0.00,Wunderground v.1.15,2013-01-28 10:06:00,
2013-01-28 05:11:00,16.1,3.5,30.35,NW,319,0.0,0.0,57,0.00,,,0.00,Wunderground v.1.15,2013-01-28 10:11:00,
2013-01-28 05:21:00,16.0,3.8,30.35,NW,321,0.0,0.0,58,0.00,,,0.00,Wunderground v.1.15,2013-01-28 10:21:00,
2013-01-28 05:31:00,15.9,4.1,30.36,NW,320,0.0,0.0,59,0.00,,,0.00,Wunderground v.1.15,2013-01-28 10:31:00,
2013-01-28 05:36:00,16.0,4.2,30.36,NW,320,0.0,0.0,59,0.00,,,0.00,Wunderground v.1.15,2013-01-28 10:36:00,
2013-01-28 05:46:00,15.8,3.6,30.36,NW,320,0.0,0.0,58,0.00,,,0.00,Wunderground v.1.15,2013-01-28 10:46:00,
2013-01-28 05:51:00,15.7,3.9,30.36,NW,320,0.0,0.0,59,0.00,,,0.00,Wunderground v.1.15,2013-01-28 10:51:00,
2013-01-28 05:56:00,15.8,4.0,30.36,NW,320,0.0,0.0,59,0.00,,,0.00,Wunderground v.1.15,2013-01-28 10:56:00,
2013-01-28 06:06:00,15.8,4.0,30.36,NW,321,0.0,0.0,59,0.00,,,0.00,Wunderground v.1.15,2013-01-28 11:06:00,
2013-01-28 06:16:00,15.7,3.5,30.36,NW,319,0.0,0.0,58,0.00,,,0.00,Wunderground v.1.15,2013-01-28 11:16:00,
2013-01-28 06:26:00,15.5,3.7,30.36,NW,319,0.0,0.0,59,0.00,,,0.00,Wunderground v.1.15,2013-01-28 11:26:00,
2013-01-28 06:36:00,15.3,4.2,30.36,NW,320,0.0,0.0,61,0.00,,,0.00,Wunderground v.1.15,2013-01-28 11:36:00,
2013-01-28 06:41:00,15.4,4.3,30.36,NW,320,0.0,0.0,61,0.00,,,0.00,Wunderground v.1.15,2013-01-28 11:41:00,
2013-01-28 06:51:00,15.3,4.2,30.36,NW,319,0.0,0.0,61,0.00,,,0.00,Wunderground v.1.15,2013-01-28 11:51:00,
2013-01-28 07:01:00,15.5,4.8,30.36,NW,319,0.0,0.0,62,0.00,,,0.00,Wunderground v.1.15,2013-01-28 12:01:00,
2013-01-28 07:11:00,16.0,4.9,30.36,NW,319,0.0,0.0,61,0.00,,,0.00,Wunderground v.1.15,2013-01-28 12:11:00,
2013-01-28 07:16:00,16.2,4.7,30.35,NW,320,0.0,0.0,60,0.00,,,0.00,Wunderground v.1.15,2013-01-28 12:16:00,
2013-01-28 07:26:00,16.7,5.2,30.36,NW,319,0.0,0.0,60,0.00,,,0.00,Wunderground v.1.15,2013-01-28 12:26:00,
2013-01-28 07:36:00,17.3,4.7,30.36,NW,321,0.0,0.0,57,0.00,,,0.00,Wunderground v.1.15,2013-01-28 12:36:00,
2013-01-28 07:41:00,17.6,4.5,30.36,NW,320,0.0,0.0,56,0.00,,,0.00,Wunderground v.1.15,2013-01-28 12:41:00,
2013-01-28 07:51:00,18.2,5.1,30.36,NW,320,0.0,0.0,56,0.00,,,0.00,Wunderground v.1.15,2013-01-28 12:51:00,
2013-01-28 07:56:00,18.4,4.9,30.36,NW,319,0.0,0.0,55,0.00,,,0.00,Wunderground v.1.15,2013-01-28 12:56:00,
2013-01-28 08:06:00,18.7,5.6,30.36,NW,320,0.0,0.0,56,0.00,,,0.00,Wunderground v.1.15,2013-01-28 13:06:00,
2013-01-28 08:16:00,19.1,5.6,30.36,NW,319,0.0,1.0,55,0.00,,,0.00,Wunderground v.1.15,2013-01-28 13:16:00,
2013-01-28 08:26:00,19.4,5.4,30.36,NW,320,0.0,0.0,54,0.00,,,0.00,Wunderground v.1.15,2013-01-28 13:26:00,
2013-01-28 08:36:00,19.7,5.7,30.35,NW,320,0.0,0.0,54,0.00,,,0.00,Wunderground v.1.15,2013-01-28 13:36:00,
2013-01-28 08:41:00,20.0,5.6,30.35,NW,320,0.0,0.0,53,0.00,,,0.00,Wunderground v.1.15,2013-01-28 13:41:00,
2013-01-28 08:46:00,20.2,5.4,30.35,NW,320,0.0,0.0,52,0.00,,,0.00,Wunderground v.1.15,2013-01-28 13:46:00,
2013-01-28 08:56:00,20.9,6.0,30.35,NW,319,0.0,0.0,52,0.00,,,0.00,Wunderground v.1.15,2013-01-28 13:56:00,
2013-01-28 09:06:00,21.6,5.8,30.35,NW,320,0.0,0.0,50,0.00,,,0.00,Wunderground v.1.15,2013-01-28 14:06:00,
2013-01-28 09:16:00,22.4,6.5,30.35,NW,320,0.0,0.0,50,0.00,,,0.00,Wunderground v.1.15,2013-01-28 14:16:00,
2013-01-28 09:26:00,23.2,6.4,30.35,NW,320,0.0,0.0,48,0.00,,,0.00,Wunderground v.1.15,2013-01-28 14:26:00,
2013-01-28 09:36:00,23.8,5.5,30.35,NW,320,0.0,0.0,45,0.00,,,0.00,Wunderground v.1.15,2013-01-28 14:36:00,
2013-01-28 09:46:00,24.5,5.7,30.35,NW,320,0.0,0.0,44,0.00,,,0.00,Wunderground v.1.15,2013-01-28 14:46:00,
2013-01-28 09:55:00,24.8,5.4,30.34,NW,319,0.0,0.0,43,0.00,,,0.00,Wunderground v.1.15,2013-01-28 14:55:00,
2013-01-28 10:01:00,25.1,5.7,30.34,NW,319,0.0,0.0,43,0.00,,,0.00,Wunderground v.1.15,2013-01-28 15:01:00,
2013-01-28 10:06:00,25.4,6.0,30.34,NW,319,0.0,0.0,43,0.00,,,0.00,Wunderground v.1.15,2013-01-28 15:06:00,
2013-01-28 10:16:00,26.0,5.5,30.34,NW,319,0.0,0.0,41,0.00,,,0.00,Wunderground v.1.15,2013-01-28 15:16:00,
2013-01-28 10:26:00,26.4,5.3,30.34,NW,319,0.0,0.0,40,0.00,,,0.00,Wunderground v.1.15,2013-01-28 15:26:00,
2013-01-28 10:36:00,27.2,4.9,30.33,NW,319,0.0,0.0,38,0.00,,,0.00,Wunderground v.1.15,2013-01-28 15:36:00,
2013-01-28 10:46:00,27.7,4.2,30.33,NW,319,0.0,0.0,36,0.00,,,0.00,Wunderground v.1.15,2013-01-28 15:46:00,
2013-01-28 10:51:00,27.8,4.9,30.32,NW,319,0.0,0.0,37,0.00,,,0.00,Wunderground v.1.15,2013-01-28 15:51:00,
2013-01-28 11:01:00,28.3,5.3,30.31,NW,319,0.0,0.0,37,0.00,,,0.00,Wunderground v.1.15,2013-01-28 16:01:00,
2013-01-28 11:06:00,28.4,6.0,30.31,NW,319,0.0,0.0,38,0.00,,,0.00,Wunderground v.1.15,2013-01-28 16:06:00,
2013-01-28 11:16:00,28.9,5.8,30.31,NW,319,0.0,1.0,37,0.00,,,0.00,Wunderground v.1.15,2013-01-28 16:16:00,
2013-01-28 11:26:00,28.8,5.8,30.30,West,259,0.0,0.0,37,0.00,,,0.00,Wunderground v.1.15,2013-01-28 16:26:00,
2013-01-28 11:31:00,28.8,5.2,30.29,West,259,0.0,0.0,36,0.00,,,0.00,Wunderground v.1.15,2013-01-28 16:31:00,
2013-01-28 11:40:00,29.2,5.5,30.28,West,259,0.0,0.0,36,0.00,,,0.00,Wunderground v.1.15,2013-01-28 16:40:00,
2013-01-28 11:46:00,29.3,5.6,30.28,West,259,0.0,0.0,36,0.00,,,0.00,Wunderground v.1.15,2013-01-28 16:46:00,
2013-01-28 11:51:00,29.3,5.6,30.27,West,259,0.0,0.0,36,0.00,,,0.00,Wunderground v.1.15,2013-01-28 16:51:00,
2013-01-28 12:01:00,29.2,6.1,30.27,West,259,0.0,0.0,37,0.00,,,0.00,Wunderground v.1.15,2013-01-28 17:01:00,
2013-01-28 12:11:00,29.1,5.4,30.25,West,259,0.0,0.0,36,0.00,,,0.00,Wunderground v.1.15,2013-01-28 17:11:00,
2013-01-28 12:16:00,29.1,5.4,30.24,West,259,0.0,0.0,36,0.00,,,0.00,Wunderground v.1.15,2013-01-28 17:16:00,
2013-01-28 12:21:00,29.2,6.1,30.24,West,259,0.0,0.0,37,0.00,,,0.00,Wunderground v.1.15,2013-01-28 17:21:00,
2013-01-28 12:31:00,29.3,6.2,30.25,West,259,0.0,0.0,37,0.00,,,0.00,Wunderground v.1.15,2013-01-28 17:31:00,
2013-01-28 12:41:00,29.4,6.9,30.25,West,259,0.0,0.0,38,0.00,,,0.00,Wunderground v.1.15,2013-01-28 17:41:00,
2013-01-28 12:51:00,29.6,6.5,30.24,West,259,0.0,0.0,37,0.00,,,0.00,Wunderground v.1.15,2013-01-28 17:51:00,
2013-01-28 13:01:00,29.5,6.4,30.23,West,259,0.0,0.0,37,0.00,,,0.00,Wunderground v.1.15,2013-01-28 18:01:00,
2013-01-28 13:06:00,29.4,10.1,30.23,West,260,0.0,0.0,44,0.00,,,0.00,Wunderground v.1.15,2013-01-28 18:06:00,
2013-01-28 13:16:00,29.0,12.2,30.22,West,259,0.0,0.0,49,0.00,,,0.00,Wunderground v.1.15,2013-01-28 18:16:00,
2013-01-28 13:26:00,28.6,13.6,30.20,NNE,26,0.0,4.0,53,0.00,,,0.00,Wunderground v.1.15,2013-01-28 18:26:00,
2013-01-28 13:36:00,28.7,12.8,30.20,NNE,25,0.0,0.0,51,0.00,,,0.00,Wunderground v.1.15,2013-01-28 18:36:00,
2013-01-28 13:41:00,28.6,14.9,30.20,ENE,69,0.0,0.0,56,0.00,,,0.00,Wunderground v.1.15,2013-01-28 18:41:00,
2013-01-28 13:46:00,28.3,15.4,30.19,East,94,1.0,2.0,58,0.00,,,0.00,Wunderground v.1.15,2013-01-28 18:46:00,
2013-01-28 13:56:00,27.6,15.1,30.19,East,96,0.0,0.0,59,0.00,,,0.00,Wunderground v.1.15,2013-01-28 18:56:00,
2013-01-28 14:06:00,27.3,17.1,30.17,ESE,110,0.0,0.0,65,0.00,,,0.00,Wunderground v.1.15,2013-01-28 19:06:00,
2013-01-28 14:16:00,27.2,17.0,30.17,ESE,111,0.0,0.0,65,0.00,,,0.00,Wunderground v.1.15,2013-01-28 19:16:00,
2013-01-28 14:21:00,27.2,17.3,30.17,ESE,110,0.0,0.0,66,0.00,,,0.00,Wunderground v.1.15,2013-01-28 19:21:00,
2013-01-28 14:31:00,27.3,17.1,30.16,ESE,110,0.0,1.0,65,0.00,,,0.00,Wunderground v.1.15,2013-01-28 19:31:00,
2013-01-28 14:36:00,27.2,17.0,30.17,ESE,110,0.0,1.0,65,0.00,,,0.00,Wunderground v.1.15,2013-01-28 19:36:00,
2013-01-28 14:46:00,27.0,17.1,30.16,ESE,103,0.0,2.0,66,0.00,,,0.00,Wunderground v.1.15,2013-01-28 19:46:00,
2013-01-28 14:51:00,26.9,17.0,30.16,ESE,110,1.0,1.0,66,0.00,,,0.00,Wunderground v.1.15,2013-01-28 19:51:00,
2013-01-28 15:01:00,26.9,17.0,30.15,ESE,110,0.0,0.0,66,0.00,,,0.00,Wunderground v.1.15,2013-01-28 20:01:00,
2013-01-28 15:11:00,27.0,17.8,30.15,East,101,0.0,2.0,68,0.00,,,0.00,Wunderground v.1.15,2013-01-28 20:11:00,
2013-01-28 15:16:00,27.0,18.2,30.15,East,101,0.0,2.0,69,0.00,,,0.00,Wunderground v.1.15,2013-01-28 20:16:00,
2013-01-28 15:26:00,27.1,18.9,30.14,East,101,0.0,2.0,71,0.00,,,0.00,Wunderground v.1.15,2013-01-28 20:26:00,
2013-01-28 15:31:00,27.1,18.9,30.15,East,101,0.0,0.0,71,0.00,,,0.00,Wunderground v.1.15,2013-01-28 20:31:00,
2013-01-28 15:36:00,27.1,18.9,30.15,East,101,0.0,0.0,71,0.00,,,0.00,Wunderground v.1.15,2013-01-28 20:36:00,
2013-01-28 15:41:00,27.2,19.0,30.14,East,101,0.0,0.0,71,0.00,,,0.00,Wunderground v.1.15,2013-01-28 20:41:00,
2013-01-28 15:51:00,27.3,19.5,30.15,East,101,0.0,0.0,72,0.00,,,0.00,Wunderground v.1.15,2013-01-28 20:51:00,
2013-01-28 16:01:00,27.5,20.9,30.15,East,101,0.0,0.0,76,0.00,,,0.00,Wunderground v.1.15,2013-01-28 21:01:00,
2013-01-28 16:06:00,27.4,19.2,30.14,East,101,0.0,0.0,71,0.00,,,0.00,Wunderground v.1.15,2013-01-28 21:06:00,
2013-01-28 16:16:00,27.2,19.7,30.14,East,101,0.0,0.0,73,0.00,,,0.00,Wunderground v.1.15,2013-01-28 21:16:00,
2013-01-28 16:21:00,27.0,19.8,30.14,East,101,0.0,0.0,74,0.00,,,0.00,Wunderground v.1.15,2013-01-28 21:21:00,
2013-01-28 16:31:00,26.5,20.3,30.14,East,99,0.0,0.0,77,0.00,,,0.00,Wunderground v.1.15,2013-01-28 21:31:00,
2013-01-28 16:41:00,26.0,21.0,30.13,ESE,103,0.0,0.0,81,0.00,,,0.00,Wunderground v.1.15,2013-01-28 21:41:00,
2013-01-28 16:51:00,25.6,21.4,30.12,ESE,103,0.0,0.0,84,0.00,,,0.00,Wunderground v.1.15,2013-01-28 21:51:00,
2013-01-28 17:01:00,25.3,21.7,30.11,ESE,103,0.0,0.0,86,0.00,,,0.00,Wunderground v.1.15,2013-01-28 22:01:00,
2013-01-28 17:11:00,24.9,21.8,30.10,ESE,103,0.0,0.0,88,0.00,,,0.00,Wunderground v.1.15,2013-01-28 22:11:00,
2013-01-28 17:21:00,24.8,22.0,30.10,ESE,104,0.0,0.0,89,0.00,,,0.00,Wunderground v.1.15,2013-01-28 22:21:00,
2013-01-28 17:31:00,24.7,21.9,30.09,ESE,104,0.0,0.0,89,0.00,,,0.00,Wunderground v.1.15,2013-01-28 22:31:00,
2013-01-28 17:41:00,24.8,22.3,30.08,ESE,104,0.0,1.0,90,0.00,,,0.00,Wunderground v.1.15,2013-01-28 22:41:00,
2013-01-28 17:46:00,24.7,22.2,30.08,ESE,104,0.0,1.0,90,0.00,,,0.00,Wunderground v.1.15,2013-01-28 22:46:00,
2013-01-28 17:56:00,24.8,22.5,30.07,ESE,104,0.0,0.0,91,0.00,,,0.00,Wunderground v.1.15,2013-01-28 22:56:00,
2013-01-28 18:06:00,24.9,22.6,30.07,ESE,104,0.0,0.0,91,0.00,,,0.00,Wunderground v.1.15,2013-01-28 23:06:00,
2013-01-28 18:16:00,25.0,23.0,30.07,ESE,104,0.0,0.0,92,0.00,,,0.00,Wunderground v.1.15,2013-01-28 23:16:00,
2013-01-28 18:21:00,25.1,23.1,30.06,ESE,104,0.0,0.0,92,0.00,,,0.00,Wunderground v.1.15,2013-01-28 23:21:00,
2013-01-28 18:31:00,25.2,23.2,30.06,ESE,104,0.0,0.0,92,0.00,,,0.00,Wunderground v.1.15,2013-01-28 23:31:00,
2013-01-28 18:41:00,25.5,23.5,30.06,ESE,104,0.0,0.0,92,0.00,,,0.00,Wunderground v.1.15,2013-01-28 23:41:00,
2013-01-28 18:46:00,25.6,23.9,30.06,ESE,103,0.0,0.0,93,0.00,,,0.00,Wunderground v.1.15,2013-01-28 23:46:00,
2013-01-28 18:51:00,25.6,23.9,30.06,ESE,104,0.0,0.0,93,0.00,,,0.00,Wunderground v.1.15,2013-01-28 23:51:00,
2013-01-28 19:01:00,25.8,24.1,30.06,ESE,104,0.0,0.0,93,0.00,,,0.00,Wunderground v.1.15,2013-01-29 00:01:00,
2013-01-28 19:11:00,26.1,24.4,30.05,ESE,104,0.0,0.0,93,0.00,,,0.00,Wunderground v.1.15,2013-01-29 00:11:00,
2013-01-28 19:21:00,26.3,24.6,30.05,ESE,104,0.0,0.0,93,0.00,,,0.00,Wunderground v.1.15,2013-01-29 00:21:00,
2013-01-28 19:26:00,26.3,24.6,30.06,ESE,104,0.0,0.0,93,0.00,,,0.00,Wunderground v.1.15,2013-01-29 00:26:00,
2013-01-28 19:36:00,26.3,24.6,30.05,ESE,104,0.0,0.0,93,0.00,,,0.00,Wunderground v.1.15,2013-01-29 00:36:00,
2013-01-28 19:46:00,26.2,24.5,30.06,ESE,104,0.0,0.0,93,0.00,,,0.00,Wunderground v.1.15,2013-01-29 00:46:00,
2013-01-28 19:56:00,26.1,24.4,30.05,ESE,104,0.0,0.0,93,0.00,,,0.00,Wunderground v.1.15,2013-01-29 00:56:00,
2013-01-28 20:06:00,26.0,24.3,30.04,ESE,103,0.0,0.0,93,0.00,,,0.00,Wunderground v.1.15,2013-01-29 01:06:00,
2013-01-28 20:16:00,26.1,24.6,30.03,ESE,104,0.0,0.0,94,0.00,,,0.00,Wunderground v.1.15,2013-01-29 01:16:00,
2013-01-28 20:26:00,26.1,24.6,30.03,ESE,103,0.0,0.0,94,0.00,,,0.00,Wunderground v.1.15,2013-01-29 01:26:00,
2013-01-28 20:36:00,26.2,24.7,30.02,ESE,103,0.0,0.0,94,0.00,,,0.00,Wunderground v.1.15,2013-01-29 01:36:00,
2013-01-28 20:46:00,26.2,24.7,30.02,ESE,104,0.0,0.0,94,0.00,,,0.00,Wunderground v.1.15,2013-01-29 01:46:00,
2013-01-28 20:56:00,26.3,24.8,30.01,ESE,103,0.0,0.0,94,0.00,,,0.00,Wunderground v.1.15,2013-01-29 01:56:00,
2013-01-28 21:06:00,26.2,24.7,30.01,ESE,103,0.0,1.0,94,0.00,,,0.00,Wunderground v.1.15,2013-01-29 02:06:00,
2013-01-28 21:16:00,26.0,24.5,30.01,ESE,104,0.0,0.0,94,0.00,,,0.00,Wunderground v.1.15,2013-01-29 02:16:00,
2013-01-28 21:21:00,25.9,24.4,30.00,ESE,103,0.0,0.0,94,0.00,,,0.00,Wunderground v.1.15,2013-01-29 02:21:00,
2013-01-28 21:31:00,25.8,24.3,30.00,ESE,104,0.0,0.0,94,0.00,,,0.00,Wunderground v.1.15,2013-01-29 02:31:00,
2013-01-28 21:41:00,25.7,24.2,29.99,ESE,103,0.0,0.0,94,0.00,,,0.00,Wunderground v.1.15,2013-01-29 02:41:00,
2013-01-28 21:51:00,25.6,24.1,29.99,ESE,103,0.0,0.0,94,0.00,,,0.00,Wunderground v.1.15,2013-01-29 02:51:00,
2013-01-28 21:56:00,25.6,24.1,29.99,ESE,102,0.0,0.0,94,0.00,,,0.00,Wunderground v.1.15,2013-01-29 02:56:00,
2013-01-28 22:06:00,25.5,24.0,29.99,ESE,102,0.0,0.0,94,0.00,,,0.00,Wunderground v.1.15,2013-01-29 03:06:00,
2013-01-28 22:16:00,25.4,23.9,29.99,ESE,103,0.0,0.0,94,0.00,,,0.00,Wunderground v.1.15,2013-01-29 03:16:00,
2013-01-28 22:26:00,25.3,23.8,29.99,ESE,103,0.0,0.0,94,0.00,,,0.00,Wunderground v.1.15,2013-01-29 03:26:00,
2013-01-28 22:36:00,25.3,23.8,29.99,ESE,102,0.0,0.0,94,0.00,,,0.00,Wunderground v.1.15,2013-01-29 03:36:00,
2013-01-28 22:46:00,25.2,23.7,29.99,ESE,103,0.0,0.0,94,0.00,,,0.00,Wunderground v.1.15,2013-01-29 03:46:00,
2013-01-28 22:56:00,25.1,23.6,29.99,ESE,103,0.0,0.0,94,0.00,,,0.00,Wunderground v.1.15,2013-01-29 03:56:00,
2013-01-28 23:06:00,24.9,23.4,29.99,ESE,103,0.0,0.0,94,0.00,,,0.00,Wunderground v.1.15,2013-01-29 04:06:00,
2013-01-28 23:16:00,24.7,23.2,29.99,ESE,103,0.0,0.0,94,0.00,,,0.00,Wunderground v.1.15,2013-01-29 04:16:00,
2013-01-28 23:26:00,24.6,23.1,29.99,ESE,103,0.0,2.0,94,0.00,,,0.00,Wunderground v.1.15,2013-01-29 04:26:00,
2013-01-28 23:36:00,24.4,22.9,29.98,East,101,0.0,1.0,94,0.00,,,0.00,Wunderground v.1.15,2013-01-29 04:36:00,
2013-01-28 23:46:00,24.3,22.8,29.98,East,92,0.0,2.0,94,0.00,,,0.00,Wunderground v.1.15,2013-01-29 04:46:00,
2013-01-28 23:56:00,24.2,22.7,29.98,East,92,0.0,1.0,94,0.00,,,0.00,Wunderground v.1.15,2013-01-29 04:56:00,